Regional Weather Roundup
Issued by NWS Bismarck, ND

Home | Current Version | Previous Version | Text Only | Print | Product List | Glossary On
Versions: 1 2 3 4 5 6 7 8 9 10 11 12 13 14 15 16 17 18 19 20 21 22 23 24 25 26 27 28 29 30 31 32 33 34 35 36 37 38 39 40 41 42 43 44 45 46 47 48 49 50
000
ASUS43 KBIS 230310
RWRBIS

NWR BROADCAST TEXT
NATIONAL WEATHER SERVICE BISMARCK ND
1000 PM CDT SUN APR 22 2018

NOTE: "FAIR" INDICATES FEW OR NO CLOUDS BELOW 12,000 FEET WITH NO
SIGNIFICANT WEATHER AND/OR OBSTRUCTIONS TO VISIBILITY.


CITY           SKY/WX    TMP DP  RH WIND       PRES   REMARKS
WILLISTON      CLEAR     49  28  44 NW10      30.11R
MINOT          CLEAR     52  34  50 S10       30.09R
MINOT AFB      NOT AVBL
BISMARCK       CLOUDY    56  38  50 SE10      30.12R
DICKINSON      PTCLDY    52  24  33 NE6       30.09R
GARRISON         N/A     49  34  56 CALM      30.11R
HETTINGER ARPT PTCLDY    53  31  42 NE13      30.10R
JAMESTOWN      CLOUDY    52  40  63 S12       30.11R
CARRINGTON     FAIR      52  45  76 CALM      30.13R
LINTON           N/A    N/A N/A N/A S15       30.12R
OAKES            N/A     46  36  66 S13       30.17R
TIOGA          FAIR      46  32  57 NW7       30.13R
$$

CITY           SKY/WX    TMP DP  RH WIND       PRES   REMARKS
GRAND FORKS    CLOUDY    53  46  77 S12       30.10R
GRAND FORKS AF NOT AVBL
DEVILS LAKE    CLOUDY    51  39  63 S3        30.11R
FARGO          FAIR      53  38  56 S20G29    30.16R
CANDO          MOCLDY    45  41  87 S6        30.11S
CAVALIER         N/A     52  39  62 SW5       30.08R
GWINNER          N/A     48  41  76 S10       30.18R
ROLLA          FAIR      43  37  81 SW5       30.09R
WALHALLA       FAIR      57  39  51 SW6       30.08S
$$

CITY           SKY/WX    TMP DP  RH WIND       PRES   REMARKS
ABERDEEN       CLEAR     45  34  65 S8        30.18R
MOBRIDGE       CLEAR     50  39  66 SE10      30.11R
BUFFALO          N/A     54  34  46 NE12      30.02R
RAPID CITY     CLEAR     49  38  65 E9        30.09R
GLASGOW        PTCLDY    51  29  42 N9        30.11R
SIDNEY         CLEAR     52  28  39 N12       30.12R
WOLF POINT     PTCLDY    51  30  44 N9        30.12R
GLENDIVE       CLEAR     51  28  41 N9        30.11R
MILES CITY     PTCLDY    56  30  37 NE10      30.07S
BAKER          PTCLDY    48  34  58 CALM      30.11R
$$

CITY           SKY/WX    TMP DP  RH WIND       PRES   REMARKS
BILLINGS       MOCLDY    56  31  38 NE12      30.04R
GREAT FALLS    CLOUDY    46  21  37 NE12      30.17R
REGINA         PTCLDY    43  30  61 NW9       30.12R
ESTEVAN        PTCLDY    43  28  56 NW7       30.11R
$$




USA.gov is the U.S. government's official web portal to all federal, state and local government web resources and services.